Weather History for Grand Canyon, AZ

Change the Weather History Date:

Tuesday, October 9, 2012

  Actual Average Record
Temperature  
Mean Temperature 51 °F -  
Max Temperature 72 °F 66 °F 81 °F (1996)
Min Temperature 30 °F 29 °F 23 °F (1989)
Degree Days  
Heating Degree Days 14    
Growing Degree Days 1 (Base 50)    
Moisture  
Dew Point 28 °F    
Average Humidity 45    
Maximum Humidity 72    
Minimum Humidity 18    
Precipitation  
Precipitation 0.00 in - - ()
Sea Level Pressure  
Sea Level Pressure 30.02 in    
Wind  
Wind Speed 3 mph (SW)    
Max Wind Speed 15 mph    
Max Gust Speed 26 mph    
Visibility 10 miles    
Events      
Averages and records for this station are not official NWS values.
T = Trace of Precipitation, MM = Missing Value Source: NWS Daily Summary

Daily Weather History Graph

Daily Weather History Graph

Search for Another Location

Airport:

Trip Planner

Search our weather history database for the weather conditions in past years. The results will help you decide how hot, cold, wet, or windy it might be!

Date:

Astronomy

Oct. 09, 2012 Rise Set
Actual Time 6:30 AM MST 6:00 PM MST
Civil Twilight 6:05 AM MST 6:25 PM MST
Nautical Twilight 5:35 AM MST 6:55 PM MST
Astronomical Twilight 5:05 AM MST 7:25 PM MST
Moon 12:21 AM MST (10/9) 2:19 PM MST (10/9)
Length of Visible Light 12h 20m
Length of Day
11h 29m
Waning Crescent, 35% of the Moon is Illuminated
Oct 9
Waning Crescent
Oct 15
New
Oct 21
First Quarter
Oct 29
Full
Nov 6
Last Quarter

Hourly Weather History & Observations

Time (MST) Temp. Dew Point Humidity Pressure Visibility Wind Dir Wind Speed Gust Speed Precip Events Conditions
12:54 AM 34.0 °F 21.9 °F 61% 30.01 in 10.0 mi Calm Calm - N/A   Clear
1:54 AM 33.1 °F 21.0 °F 61% 30.01 in 10.0 mi Calm Calm - N/A   Clear
2:54 AM 30.9 °F 21.0 °F 67% 30.02 in 10.0 mi Calm Calm - N/A   Clear
3:54 AM 30.9 °F 19.9 °F 64% 30.01 in 10.0 mi Calm Calm - N/A   Clear
4:54 AM 30.9 °F 21.0 °F 67% 30.02 in 10.0 mi Calm Calm - N/A   Clear
5:54 AM 30.9 °F 21.9 °F 69% 30.05 in 10.0 mi Calm Calm - N/A   Clear
6:54 AM 30.9 °F 23.0 °F 72% 30.08 in 10.0 mi Calm Calm - N/A   Clear
7:54 AM 45.0 °F 30.0 °F 56% 30.09 in 10.0 mi Calm Calm - N/A   Clear
8:54 AM 60.1 °F 37.0 °F 42% 30.06 in 10.0 mi SW 11.5 mph - N/A   Clear
9:54 AM 62.1 °F 39.0 °F 43% 30.07 in 10.0 mi SSW 10.4 mph 18.4 mph N/A   Clear
10:54 AM 64.9 °F 37.0 °F 36% 30.04 in 10.0 mi SW 8.1 mph 16.1 mph N/A   Clear
11:54 AM 66.9 °F 32.0 °F 27% 30.02 in 10.0 mi Variable 4.6 mph - N/A   Clear
12:54 PM 70.0 °F 28.9 °F 22% 30.00 in 10.0 mi WSW 8.1 mph - N/A   Clear
1:54 PM 71.1 °F 28.9 °F 21% 29.98 in 10.0 mi South 6.9 mph 19.6 mph N/A   Clear
2:54 PM 72.0 °F 26.1 °F 18% 29.97 in 10.0 mi SSW 13.8 mph 26.5 mph N/A   Clear
3:54 PM 69.1 °F 30.0 °F 23% 29.99 in 10.0 mi SSW 9.2 mph - N/A   Partly Cloudy
4:54 PM 69.1 °F 28.9 °F 22% 29.98 in 10.0 mi SW 15.0 mph 19.6 mph N/A   Partly Cloudy
5:54 PM 62.1 °F 32.0 °F 32% 30.00 in 10.0 mi SW 3.5 mph - N/A   Partly Cloudy
6:54 PM 57.0 °F 30.0 °F 36% 30.05 in 10.0 mi SW 3.5 mph - N/A   Mostly Cloudy
7:54 PM 57.0 °F 30.9 °F 37% 30.01 in 10.0 mi SSW 4.6 mph - N/A   Mostly Cloudy
8:54 PM 46.9 °F 27.0 °F 46% 30.01 in 10.0 mi Calm Calm - N/A   Scattered Clouds
9:54 PM 43.0 °F 27.0 °F 53% 30.03 in 10.0 mi Calm Calm - N/A   Clear
10:54 PM 41.0 °F 26.1 °F 55% 30.03 in 10.0 mi Calm Calm - N/A   Clear
11:54 PM 39.9 °F 27.0 °F 60% 30.03 in 10.0 mi Calm Calm - N/A   Clear